OREBRO PRIVATE current weather conditions

sailwx.info

Wind from 340 at 9 knots

Air temperature 1.0° C
Visibility: greater than 5.4 NM
Dewpoint -1.0° C

Last reported at 2016-Feb-11 15:20 UTC.
Time now 2016-Feb-11 17:06 UTC

Location: N 59°14' E 015°03'.
View on Google Maps.

See reports from other nearby stations

  
Tides and Currents Weather Stations Pressure Air Temp Water Temp Dewpoint Dewpoint Depression Visibility Wind Speed Wind Dir Waves Ship Positions
date/time (UTC)wind fromknots sea level pressurealtimeterstation pressurevisibilityair tempwater tempwave heightnotes
2016-Feb-11 16:20 340 8 5.4 1.0
2016-Feb-11 15:50 350 9 5.4 1.0
2016-Feb-11 15:20 340 9 5.4 1.0
2016-Feb-11 14:50 350 7 5.4 1.0
2016-Feb-11 14:20 350 8 5.4 2.0
2016-Feb-11 13:50 340 9 5.4 2.0
2016-Feb-11 13:20 340 10 5.4 2.0
2016-Feb-11 12:50 350 8 5.4 2.0
2016-Feb-11 12:20 350 10 5.4 2.0
2016-Feb-11 11:50 340 8 5.4 2.0
2016-Feb-11 11:20 350 4 5.4 2.0
2016-Feb-11 10:50 340 5 5.4 2.0
2016-Feb-11 10:20 340 3 5.4 2.0
2016-Feb-11 09:50 340 5 5.4 2.0
2016-Feb-11 09:20 340 6 5.4 1.0
2016-Feb-11 08:50 330 5 5.4 1.0
2016-Feb-11 08:20 310 5 5.4 1.0
2016-Feb-11 07:50 310 6 5.4 1.0
2016-Feb-11 07:20 290 5 5.4-0.0
2016-Feb-11 06:50 280 5 5.4-0.0
2016-Feb-11 06:20 280 4 5.4-0.0
2016-Feb-11 05:50 280 4 5.4 1.0
2016-Feb-11 05:20 270 5 5.4 1.0 Light snow.
2016-Feb-11 04:50 280 4 5.4 1.0 Snow grains.
2016-Feb-11 04:20 280 4 5.4 1.0 Light snow.
2016-Feb-11 03:50 270 5 3.2 1.0 Light snow.
2016-Feb-11 03:20 270 5 5.4 1.0 Precipitation.
2016-Feb-11 02:50 270 4 5.4 1.0
2016-Feb-11 02:20 260 4 5.4 2.0 Snow grains.
2016-Feb-11 01:50 290 3 5.4 2.0 Light snow.
2016-Feb-11 01:20 300 3 5.4 2.0 Light rain.
2016-Feb-11 00:50 300 3 5.4 2.0
2016-Feb-11 00:20 290 5 5.4 2.0
2016-Feb-10 23:50 290 5 5.4 2.0
2016-Feb-10 23:20 300 4 5.4 2.0
2016-Feb-10 22:50 320 4 5.4 2.0
2016-Feb-10 22:20 310 4 5.4 2.0
2016-Feb-10 21:50 310 6 5.4 2.0
2016-Feb-10 21:20 300 5 5.4 2.0
2016-Feb-10 20:50 300 5 5.4 2.0
2016-Feb-10 20:20 310 7 5.4 3.0
2016-Feb-10 19:50 300 6 5.4 3.0
2016-Feb-10 19:20 310 6 5.4 3.0
2016-Feb-10 18:50 300 6 5.4 2.0
2016-Feb-10 18:20 300 5 5.4 2.0 Light drizzle.
2016-Feb-10 17:50 290 3 5.4 2.0
2016-Feb-10 17:20 320 8 5.4 2.0
2016-Feb-10 16:50 320 7 5.4 2.0
2016-Feb-10 16:20 330 7 5.4 2.0
2016-Feb-10 15:50 330 8 5.4 2.0
2016-Feb-10 15:20 340 10 5.4 2.0
2016-Feb-10 14:50 340 10 5.4 2.0
2016-Feb-10 14:20 350 10 3.2 2.0 Light drizzle.
2016-Feb-10 13:50 360 9 3.8 2.0 Light drizzle.
2016-Feb-10 13:20 010 10 3.8 1.0 Light rain.
2016-Feb-10 12:50 010 10 3.8 1.0 Light rain snow.
2016-Feb-10 12:20 010 10 5.4 1.0
2016-Feb-10 11:50 360 7 1.2 1.0 Snow.
2016-Feb-10 11:20 020 9 0.6 1.0 Snow.
2016-Feb-10 10:50 020 11 0.2 1.0 Snow.
2016-Feb-10 10:20 010 12 1.1 1.0 Snow.
2016-Feb-10 09:50 030 10 1.9 1.0 Snow.
2016-Feb-10 09:20 040 8 2.7 2.0 Light rain.
2016-Feb-10 08:50 040 11 3.2 2.0 Light rain.
2016-Feb-10 08:20 040 12 5.4 2.0 Drizzle.
2016-Feb-10 07:50 040 11 4.3 2.0 Light rain.
2016-Feb-10 07:20 040 11 4.3 2.0 Rain.
2016-Feb-10 06:50 030 9 5.4 2.0 Light rain.
2016-Feb-10 06:20 040 6 5.4 2.0
2016-Feb-10 05:50 040 5 5.4 2.0
2016-Feb-10 05:20 080 5 5.4 3.0
2016-Feb-10 04:50 100 4 5.4 3.0
2016-Feb-10 04:20 090 5 5.4 3.0
2016-Feb-10 03:50 060 5 5.4 3.0
2016-Feb-10 03:20 120 6 5.4 3.0
2016-Feb-10 02:50 110 6 5.4 4.0
2016-Feb-10 02:20 140 6 5.4 4.0
2016-Feb-10 01:50 170 5 5.4 4.0
2016-Feb-10 01:20 160 6 5.4 4.0
2016-Feb-10 00:50 190 6 5.4 4.0
2016-Feb-10 00:20 190 8 5.4 4.0
2016-Feb-09 23:50 190 9 5.4 5.0
2016-Feb-09 23:20 170 8 5.4 4.0
2016-Feb-09 22:50 180 8 5.4 5.0
2016-Feb-09 22:20 180 8 5.4 5.0
2016-Feb-09 21:50 200 10 5.4 5.0
2016-Feb-09 21:20 200 6 5.4 4.0
2016-Feb-09 20:50 170 6 5.4 4.0
2016-Feb-09 20:20 190 8 5.4 4.0
2016-Feb-09 19:50 190 8 5.4 4.0
2016-Feb-09 19:20 200 9 5.4 5.0
2016-Feb-09 18:50 200 10 5.4 5.0
2016-Feb-09 18:20 200 11 5.4 5.0
2016-Feb-09 17:50 210 10 5.4 5.0
2016-Feb-09 17:20 200 9 5.4 5.0